Location: Stanstead Abbots
(51.7833°N, 0.0167°E)
Time: 21:51:49
(UTC+00:00)

Daily predictions for brighter satellites

Satellite Brightness Start Highest point End
(mag) Time Altitude Azimuth Time Altitude Azimuth Time Altitude Azimuth
Nadezhda 4 Rocket 4.2 19:25:00 10° N 19:31:21 86° W 19:37:38 10° S
Cosmos 2034 Rocket 4.0 19:26:07 10° S 19:32:18 76° E 19:38:36 10° NNE
In-Cosmos 22 Rocket 4.5 19:30:48 10° NNW 19:36:40 84° W 19:42:30 10° S
SAR-Lupe-1 4.4 19:35:22 10° NNE 19:38:59 73° WNW 19:42:32 10° SSW
Cosmos 2237 Rocket 3.0 19:34:44 10° NNW 19:40:00 37° NE 19:45:11 10° ESE
Cosmos 1464 Rocket 4.4 19:33:52 10° SSW 19:40:10 73° WNW 19:46:25 10° N
Exosat Rocket 4.1 19:33:53 10° NNW 19:41:03 68° ENE 19:46:23 10° SE
BREEZE-M DEB (TANK) 4.1 19:37:44 10° WSW 19:42:33 42° SSE 19:47:14 10° E
SJ-6B 2.7 19:39:25 10° SSE 19:43:09 88° WSW 19:46:56 10° NNW
SL-8 R/B 4.3 19:39:29 10° W 19:44:09 48° SSW 19:48:47 10° ESE
Meteor 2-10 Rocket 3.6 19:39:01 10° S 19:44:14 68° E 19:49:42 10° NNE
BREEZE-M DEB (TANK) 4.2 19:41:47 10° SW 19:44:47 42° SSE 19:51:59 10° ENE
MOS 1 4.3 19:41:36 10° SSE 19:47:13 77° ENE 19:52:54 10° NNW
Cosmos 2026 Rocket 4.0 19:41:43 10° N 19:47:47 66° ENE 19:53:50 10° SSE
Cosmos 405 3.0 19:46:55 10° S 19:50:18 57° E 19:53:45 10° NNE
OBJECT-B 1.1 19:48:19 10° S 19:51:32 71° WSW 19:54:48 10° NNW
IRS-1A Rocket 4.3 19:46:31 10° SSE 19:52:06 84° ENE 19:57:51 10° NNW
Terra 3.9 19:51:33 10° ENE 19:53:39 13° NE 19:55:46 10° NNE
SL-27 R/B 4.4 19:50:53 10° SW 19:54:07 35° WNW 19:57:19 10° N
BREEZE-M DEB (TANK) 3.9 19:50:04 10° SW 19:54:12 69° SSE 20:09:46 10° ENE
Cosmos 1892 3.3 19:50:46 10° NNW 19:54:29 59° W 19:58:12 10° S
CZ-4 R/B 4.4 19:52:01 10° SW 19:54:37 16° W 19:57:11 10° NW
NOSS 3-4 (A) 3.4 19:49:19 10° SW 19:55:14 87° SE 20:01:42 10° NE
NOSS 3-4 (C) 3.4 19:49:26 10° SW 19:55:20 87° SE 20:01:48 10° NE
Cosmos 1627 Rocket 4.5 19:51:45 10° N 19:57:55 80° E 20:04:06 10° SSE
Cosmos 2098 Rocket 4.5 19:51:48 10° N 19:58:45 85° W 20:06:12 10° S
Cosmos 2227 Rocket 3.9 19:57:04 10° ESE 19:59:20 13° E 20:01:47 10° ENE
Cosmos 1606 Rocket 4.1 19:55:57 10° SSW 20:00:17 63° WNW 20:04:37 10° N
Cosmos 2251 Rocket 3.9 19:57:44 10° S 20:02:45 42° ESE 20:07:47 10° NE
SPOT 1/Viking Rocket 4.4 19:58:13 11° SE 20:02:50 36° ENE 20:07:35 10° N
Cosmos 389 Rocket 3.7 20:00:14 10° SE 20:03:00 23° E 20:05:51 10° NE
Cosmos 2333 Rocket 2.8 19:58:01 10° NW 20:03:42 59° WSW 20:09:19 10° SSE
Cosmos 2297 Rocket 3.5 20:02:39 10° SE 20:06:27 19° E 20:10:16 10° ENE
BREEZE-M DEB (TANK) 2.0 20:04:13 10° W 20:06:43 47° S 20:08:17 17° ESE
Cosmos 1825 2.1 20:03:28 10° N 20:07:16 90° N 20:11:04 10° S
Cosmos 1634 Rocket 4.0 20:01:27 10° S 20:07:39 67° E 20:13:51 10° NNE
ATLAS 2AS CENTAUR R/B 3.0 20:01:04 10° SSW 20:08:58 77° SE 20:16:42 10° NE
SPOT 3 Rocket 3.7 20:04:07 10° SSE 20:09:14 62° ENE 20:14:22 10° N
NOSS 7 (H) 4.0 20:06:32 10° SW 20:09:48 74° SE 20:12:43 10° NE
Cosmos 1726 Rocket 4.1 20:06:26 10° SSW 20:10:46 62° WNW 20:15:06 10° N
ARIANE 5 R/B 3.8 20:09:19 14° ESE 20:12:25 28° ENE 20:16:11 10° N
Ariane Rocket 3.3 20:09:42 10° S 20:14:44 69° WSW 20:19:48 10° NNW
Cosmos 1408 3.7 20:11:52 10° NNW 20:15:16 42° W 20:18:39 10° SSW
Orbus 7S? 3.5 20:16:44 10° SSW 20:19:35 49° SE 20:24:57 10° ENE
CZ-4C R/B 3.2 20:15:59 10° WSW 20:21:08 52° NNW 20:27:27 10° NE
RESURS DK-1 2.3 20:18:21 10° SSW 20:22:24 59° ESE 20:26:30 10° NE
Genesis I 4.1 20:18:47 10° NNW 20:22:35 40° NE 20:25:22 16° ESE
Landsat 7 3.9 20:20:37 13° SSE 20:24:52 66° ENE 20:29:37 10° N
USA 245 3.7 20:24:37 18° SE 20:27:01 39° ENE 20:30:05 10° N
Cosmos-2242 4.2 20:25:50 18° ESE 20:27:42 24° E 20:31:11 10° NE
Cosmos 2058 3.4 20:24:10 10° NNW 20:28:20 61° W 20:32:26 10° S
NOSS 7 (E) 4.2 20:24:51 10° SW 20:28:28 69° SE 20:31:33 10° NE
Meteor 2-1 Rocket 4.3 20:23:19 10° S 20:29:09 79° E 20:35:06 10° NNE
Cosmos 1655 Rocket 4.2 20:26:39 10° N 20:32:53 57° ENE 20:37:45 17° SSE
Cosmos 482 Debris 2.4 20:31:10 10° WSW 20:33:30 76° SSE 20:33:56 47° E
SL-16 R/B 3.1 20:28:44 10° NNW 20:34:00 37° NE 20:37:53 17° ESE
Cosmos 1980 3.7 20:29:46 10° NNW 20:35:30 82° ENE 20:39:45 19° SE
Cosmos 2058 Rocket 3.8 20:32:40 10° SSW 20:36:56 54° WNW 20:41:15 10° N
COSMOS 2487 3.8 20:34:02 10° SW 20:37:16 41° WNW 20:40:33 10° NNE
Cosmos 614 Rocket 4.0 20:32:21 10° S 20:37:21 57° ESE 20:42:23 10° NNE
BREEZE-M DEB (TANK) 3.9 20:34:01 10° WSW 20:38:22 72° SSE 20:54:58 10° E
Cosmos 2151 3.1 20:38:26 10° N 20:42:43 60° ENE 20:45:16 23° SSE
COSMOS 2428 3.8 20:38:44 10° NW 20:44:06 42° WSW 20:49:27 10° S
Meteor 2-3 Rocket 3.9 20:38:56 10° N 20:44:40 58° ENE 20:48:26 21° SE
IRIDIUM 104 4.3 20:40:23 10° S 20:45:35 77° E 20:50:50 10° N
Cosmos 1076 Rocket 3.7 20:42:10 10° NNW 20:46:32 74° W 20:50:07 15° S
ATLAS 3B R/B 3.4 20:40:27 10° NW 20:47:11 52° WSW 20:53:12 14° SSE
Cosmos 2344 3.5 20:39:49 10° SSW 20:47:13 75° SE 20:55:18 10° NE
FALCON 9 DEB 3.4 20:45:18 10° SW 20:48:33 42° SSE 20:49:45 30° ESE
Cosmos 192 4.5 20:43:58 10° NNW 20:48:56 75° WSW 20:52:27 19° SSE
USA 215 3.4 20:45:38 20° SE 20:50:22 69° SW 20:56:56 10° WNW
Cosmos 1812 Rocket 3.5 20:47:57 13° S 20:51:49 69° E 20:56:17 10° NNE
Resurs 01 Rocket 2.3 20:50:18 11° S 20:54:29 52° W 20:58:52 10° NNW
IRIDIUM 114 4.3 20:49:30 10° S 20:54:44 90° NW 21:00:00 10° N
Cosmos 1818 3.5 20:49:36 10° SSW 20:55:02 77° SE 21:00:32 10° NE
Cosmos 1455 4.0 20:52:31 10° SW 20:55:56 33° WNW 20:59:22 10° N
Cosmos 2219 Rocket 3.8 20:52:09 10° NW 20:57:00 29° WSW 21:01:48 10° SSW
Cosmos 44 3.4 20:52:02 10° SW 20:57:13 87° SE 21:02:40 10° NE
ERS-1 Rocket 3.3 20:54:40 25° SE 20:57:18 51° ENE 21:02:09 10° N
Okean 3 Rocket 4.3 20:53:19 10° N 20:57:38 40° ENE 20:59:21 28° ESE
Cosmos 407 Rocket 3.7 20:53:35 15° S 20:57:40 48° ESE 21:02:38 10° NE
NOSS 0 Rocket 4.4 20:52:16 10° NW 20:58:19 56° WSW 21:03:07 17° S
Meteor 2-21 4.4 20:54:40 10° NNW 21:00:46 87° WSW 21:05:28 18° S
Cosmos 1766 Rocket 4.1 20:57:53 10° N 21:02:02 42° ENE 21:03:29 31° ESE
Cosmos 1633 2.5 20:58:53 10° NNW 21:02:31 80° W 21:04:10 30° S
IRIDIUM 103 4.4 20:58:40 10° S 21:03:53 77° W 21:09:08 10° N
CARTOSAT-1 3.5 21:04:22 31° SSE 21:06:21 71° ENE 21:10:40 10° N
IGS 5A 4.4 21:04:08 14° SSW 21:07:26 44° W 21:11:27 10° NNW
ATLAS 5 CENTAUR R/B 4.0 21:04:28 10° WNW 21:08:08 24° NNW 21:12:18 10° NE
Cosmos 405 Rocket 4.3 21:05:33 10° NNW 21:09:13 34° W 21:12:30 12° SSW
Meteor 1-4 Rocket 4.0 21:10:11 22° ENE 21:10:11 22° ENE 21:12:24 10° NE
Lacrosse 5 rocket 2.6 21:05:40 10° WNW 21:09:39 41° N 21:13:51 10° ENE
Cosmos 909 Rocket 4.0 21:07:13 10° SW 21:13:31 89° NW 21:20:09 10° NE
Cosmos 1023 Rocket 4.4 21:12:04 19° S 21:15:38 60° ESE 21:20:40 10° NNE
COSMOS 2455 3.7 21:18:15 27° ESE 21:18:27 27° ESE 21:23:24 10° NE
Cosmos 1869 3.8 21:18:39 39° ESE 21:18:56 39° E 21:22:39 10° NNE
SPOT 5 2.7 21:19:30 37° SSE 21:21:17 74° ENE 21:26:04 10° NNW
Cosmos 1140 Rocket 3.4 21:18:31 20° S 21:22:04 65° ESE 21:27:10 10° NNE
Cosmos 2237 Rocket 2.7 21:18:48 10° NW 21:24:16 51° WSW 21:27:26 24° S
Spot 2 Rocket 3.7 21:21:43 26° S 21:24:35 70° WSW 21:29:41 10° NNW
CZ-2C R/B 4.0 21:20:22 10° N 21:24:48 66° WNW 21:28:53 12° SSW
SeaSat 1 4.3 21:23:00 10° ENE 21:24:38 15° E 21:24:38 15° E
Terra 1.8 21:28:59 41° SE 21:30:33 67° ENE 21:35:18 10° N
Cosmos 389 Rocket 4.3 21:34:22 10° SW 21:37:32 30° WNW 21:40:44 10° N
Cosmos 2082 4.1 21:39:13 38° ESE 21:39:45 38° ESE 21:44:56 10° NE
USA 229 DEB 4.4 21:34:14 10° NW 21:41:14 54° NNE 21:46:08 22° ESE
USA 229 4.4 21:34:20 10° NW 21:41:19 54° NNE 21:46:15 22° ESE
Cosmos 2263 Rocket 4.1 21:42:46 13° E 21:42:46 13° E 21:44:19 10° ENE
Cosmos 468 Rocket 4.1 21:37:07 10° NNW 21:42:14 62° ENE 21:43:44 43° ESE
Cosmos 2227 Rocket 2.1 21:38:45 23° SSW 21:42:20 70° ESE 21:47:59 10° NE
Meteor 2-8 Rocket 4.4 21:42:18 32° S 21:45:19 75° E 21:51:27 10° NNE
ARIANE 5 R/B 3.6 21:46:52 27° SSW 21:48:45 41° W 21:52:56 10° NNW
Cosmos 1842 Rocket 4.2 21:49:34 38° E 21:49:34 38° E 21:53:34 10° NNE
Cosmos 2297 Rocket 2.1 21:44:06 10° SSW 21:49:46 87° WNW 21:55:29 10° NNE
Cosmos 841 Rocket 4.3 21:45:01 10° NNW 21:49:56 39° NE 21:51:30 31° E
Cosmos 1190 Rocket 3.9 21:47:49 22° SSW 21:51:17 86° WNW 21:56:33 10° NNE
Cosmos 2219 3.1 21:47:37 14° SSW 21:52:31 90° WNW 21:58:11 10° NNE
H-2A R/B 3.3 21:49:10 10° NNE 21:53:23 69° ESE 21:53:41 66° SE
NOSS 3-1 (A) 4.3 21:52:08 10° NW 21:59:07 60° NE 22:04:04 25° ESE
Genesis I 4.2 21:56:27 10° NW 22:00:08 36° WSW 22:00:14 36° SW
ATLAS 2AS CENTAUR R/B 4.0 21:53:00 10° W 22:00:34 47° NNW 22:07:53 10° NE
Cosmos 921 Rocket 4.1 21:57:10 10° N 22:01:14 33° ENE 22:01:48 31° ENE
Timation 2 Rocket 3.9 21:55:02 10° SSW 22:01:37 88° SE 22:07:58 10° NNE
Cosmos 1763 Rocket 3.3 21:56:48 10° NNW 22:01:55 83° ENE 22:02:58 57° SE
Cosmos 1862 3.3 21:58:10 10° N 22:02:05 69° ENE 22:02:05 69° ENE
Nadezhda 2 Rocket 4.4 21:57:09 10° N 22:03:30 89° E 22:05:44 43° S
Cosmos-2242 4.1 22:02:38 22° SW 22:05:02 41° WNW 22:09:09 10° N
Cosmos 1408 Rocket 3.3 22:01:24 10° N 22:05:44 89° WSW 22:06:07 74° S
Cosmos 676 Rocket 3.8 22:07:08 46° SSW 22:08:42 83° ESE 22:13:55 10° NNE
CZ-4C R/B 4.3 22:05:55 10° WNW 22:11:04 30° N 22:17:09 10° NE
Cosmos 1805 Rocket 4.4 22:07:09 10° N 22:11:11 35° ENE 22:11:11 35° ENE
CRYOSAT 2 4.3 22:10:15 57° S 22:11:16 83° W 22:16:13 10° N
Spot 4 4.5 22:11:46 40° E 22:12:27 42° ENE 22:17:01 10° N
SL-16 R/B 2.6 22:12:50 10° NW 22:18:22 53° WSW 22:19:46 43° SSW
Sich 1 4.0 22:17:10 10° N 22:20:54 34° ENE 22:20:54 34° ENE
Cosmos 1743 Rocket 3.5 22:16:57 10° N 22:21:17 74° ENE 22:21:17 74° ENE
Cosmos 540 Rocket 3.4 22:16:13 10° NNW 22:21:20 69° ENE 22:22:04 60° ESE
Meteor 2-15 Rocket 4.3 22:22:07 49° S 22:23:52 83° E 22:30:00 10° NNE
NOSS 3-1 (C) 3.9 22:18:09 10° NW 22:25:26 87° SW 22:28:42 42° SE
SL-08 ROCKET BODY 4.3 22:20:13 10° N 22:26:23 89° ESE 22:27:52 54° S
Cosmos 1570 Rocket 4.3 22:23:13 10° NNW 22:28:28 55° ENE 22:29:21 49° E
Cosmos 2221 2.4 22:30:07 82° N 22:30:07 82° N 22:34:15 10° N
SL-08 R/B 4.4 22:23:54 10° N 22:30:06 87° W 22:31:43 53° S
Cosmos 1386 Rocket 4.4 22:27:19 10° N 22:33:25 73° ENE 22:34:38 56° SE
USA 215 4.5 22:32:58 23° SW 22:34:11 25° SW 22:39:24 10° WNW
Cosmos 44 Rocket 3.4 22:36:36 62° E 22:36:36 62° E 22:41:22 10° NE
ERS-1 Rocket 4.5 22:34:39 22° SW 22:36:21 27° W 22:40:37 10° NW
Aureole 1 Rocket 3.8 22:38:07 53° E 22:38:07 53° E 22:42:33 10° NE
Cosmos 1553 Rocket 3.8 22:39:11 56° S 22:40:35 85° E 22:46:43 10° N
Cosmos 1500 Rocket 3.6 22:36:24 10° NNW 22:40:50 73° W 22:40:50 73° W
Meteor 1-4 Rocket 4.2 22:44:18 28° WNW 22:44:24 28° WNW 22:47:30 10° N
Cosmos 1943 3.1 22:42:31 10° NNW 22:48:11 78° ENE 22:48:59 65° ESE
Cosmos 1741 Rocket 3.9 22:48:41 72° ESE 22:48:45 72° ESE 22:54:02 10° NNE
Lacrosse 5 rocket 2.0 22:45:07 10° WNW 22:49:23 57° NNE 22:49:47 54° NE
ALOS 2 3.2 22:49:56 49° ENE 22:49:56 49° ENE 22:53:58 10° N
Cosmos 1417 Rocket 4.4 22:49:46 57° S 22:51:12 87° E 22:57:31 10° N
Cosmos 1850 Rocket 3.8 22:54:08 81° SE 22:54:17 82° ESE 22:59:33 10° NNE
ATLAS 5 CENTAUR R/B 4.1 22:50:20 10° NW 22:54:18 24° NNE 22:58:48 10° ENE
Cosmos 2208 Rocket 3.9 22:58:01 10° NNW 23:03:23 82° ENE 23:03:42 77° ESE
COSMOS 2455 3.0 23:01:18 36° SW 23:03:54 73° NW 23:09:58 10° NE
SeaSat 1 2.3 22:59:21 10° NNE 23:04:19 89° ESE 23:04:24 87° S
Cosmos 1606 3.8 23:09:02 43° N 23:09:02 43° N 23:11:43 10° N
Terra 3.7 23:07:51 18° WSW 23:08:46 19° W 23:12:11 10° NW
Cosmos 2315 Rocket 4.1 23:10:31 55° ESE 23:11:16 58° E 23:17:29 10° NNE
Iridium 4 Rocket 4.0 23:11:57 47° ENE 23:11:57 47° ENE 23:16:47 10° NNE
Cosmos 1151 Rocket 4.2 23:21:43 36° NE 23:21:43 36° NE 23:24:45 10° NNE
SL-24 DEB 4.4 23:21:37 68° WNW 23:21:37 68° WNW 23:25:56 10° N
Cosmos 2263 Rocket 2.0 23:24:25 77° ESE 23:24:25 77° ESE 23:30:00 10° NNE
Cosmos 2227 Rocket 3.9 23:21:57 10° WSW 23:26:54 30° NW 23:31:52 10° NNE
Cosmos 841 Rocket 4.3 23:27:00 10° NW 23:31:35 39° W 23:31:35 39° W
USA 229 DEB 4.0 23:25:19 10° NW 23:32:26 59° SW 23:33:33 54° SSW
Cosmos 1603 4.0 23:26:58 10° NW 23:32:30 52° WSW 23:32:30 52° WSW
USA 229 3.9 23:25:24 10° NW 23:32:32 59° SW 23:33:40 54° SSW
Meteor 2-17 Rocket 4.4 23:26:50 10° NNW 23:32:58 73° W 23:33:42 65° SW
Cosmos 2297 Rocket 4.3 23:30:06 10° W 23:34:38 24° NW 23:39:12 10° NNE
USA 281 3.5 23:33:03 43° ESE 23:35:09 63° NE 23:41:40 10° NNW
Cosmos 1844 Rocket 4.1 23:39:31 25° E 23:39:31 25° E 23:43:17 10° NE
Cosmos 921 Rocket 4.4 23:35:29 10° NW 23:38:35 31° WNW 23:38:35 31° WNW
Cosmos 2074 Rocket 4.2 23:36:05 10° N 23:42:17 60° ENE 23:43:22 52° ESE
Cosmos 1437 Rocket 4.1 23:43:52 37° NNW 23:43:52 37° NNW 23:46:26 10° N
Cosmos 1709 Rocket 4.1 23:39:51 10° NNW 23:45:59 59° W 23:46:44 55° WSW
Meteor 1-5 Rocket 4.4 23:41:01 10° N 23:46:45 60° ENE 23:47:20 56° E
NOSS 3-1 (A) 4.2 23:43:03 10° NW 23:50:16 54° SW 23:51:29 50° SSW
